Preview of NWS' New Version of Forecast
This preview is not operational and should not be used for support decisions.

Regional Weather Roundup (RWR)

Issued by National Weather Service (NWS)

                            
000
ASUS43 KMKX 212311
RWRWI 

WISCONSIN REGIONAL WEATHER ROUNDUP
NATIONAL WEATHER SERVICE MILWAUKEE/SULLIVAN WI
600 PM CDT SAT SEP 21 2019

NOTE: "FAIR" INDICATES FEW OR NO CLOUDS BELOW 12,000 FEET WITH NO
SIGNIFICANT WEATHER AND/OR OBSTRUCTIONS TO VISIBILITY.

WIZ001-002-006>008-014>016-023>028-220000-
NORTHWEST WISCONSIN
  
CITY           SKY/WX    TMP DP  RH WIND       PRES   REMARKS
SUPERIOR ARPT  LGT RAIN  73  70  89 S5        29.69R                  
ASHLAND        CLOUDY    75  69  81 S9G21     29.72S                  
HAYWARD        CLOUDY    74  68  81 S12       29.75R                  
SIREN            N/A     75  69  81 MISG        N/A                   
CUMBERLAND     CLOUDY    73  68  83 S12       29.75S                  
RICE LAKE      CLOUDY    77  61  58 S12G18    29.76S                  
CHETEK         CLOUDY    75  71  85 S10G18    29.76S                  
LADYSMITH      PTSUNNY   74  71  90 S12G20    29.80S                  
EAU CLAIRE     CLOUDY    78  69  73 S15G24    29.76F HX  80           
MENOMONIE      PTSUNNY   73  67  82 S14       29.77F                  
NEW RICHMOND   FAIR      78  67  69 S16G22    29.74S HX  80           
OSCEOLA        FAIR      78  71  79 S14       29.75S HX  81           
$$
 
WIZ003>005-009-010-017-018-220000-
NORTH CENTRAL WISCONSIN
  
CITY           SKY/WX    TMP DP  RH WIND       PRES   REMARKS
MANITOWISH WTR CLOUDY    69  69 100 S10G17    29.81S                  
ARBOR VITAE    CLOUDY    72  68  87 SW12      29.83S                  
WOODRUFF       CLOUDY    72  68  87 SW12      29.83S                  
RHINELANDER    LGT RAIN  70  68  93 S9G21     29.86S                  
EAGLE RIVER    LGT RAIN  69  69 100 S6        29.84S                  
LAND O LAKES   LGT RAIN  70  69  96 S6        29.85S                  
PHILLIPS       CLOUDY    70  70 100 S9        29.80F                  
TOMAHAWK       CLOUDY    69  67  94 S3        29.85S                  
MEDFORD        CLOUDY    69  68  95 S12G17    29.84F                  
MERRILL        CLOUDY    71  71 100 S12       29.86S FOG              
$$
 
WIZ029-030-035-036-043>047-220000-
CENTRAL WISCONSIN
  
CITY           SKY/WX    TMP DP  RH WIND       PRES   REMARKS
WAUSAU         LGT RAIN  70  70 100 S12G21    29.85F FOG              
MOSINEE        DRIZZLE   70  66  88 S12       29.89S                  
MARSHFIELD     CLOUDY    72  69  90 S12       29.85F                  
STEVENS POINT  CLOUDY    70  70 100 S12       29.89S                  
WAUPACA        CLOUDY    75  71  85 S9        29.90S                  
WAUTOMA        CLOUDY    74  69  85 S10       29.91R                  
WISC RAPIDS    CLOUDY    73  69  87 S10       29.88F                  
CAMP DOUGLAS   FAIR      75  70  85 S8        29.88F                  
$$
 
WIZ011>013-019>022-031-037>040-048>050-220000-
NORTHEAST WISCONSIN
  
CITY           SKY/WX    TMP DP  RH WIND       PRES   REMARKS
ANTIGO         CLOUDY    69  69 100 S10       29.88F FOG              
SHAWANO        CLOUDY    75  70  86 SW5       29.88S                  
OCONTO         CLOUDY    73  69  89 SW7       29.88F                  
STURGEON BAY   CLOUDY    68  66  93 S9        29.91S                  
GREEN BAY      CLOUDY    74  69  85 S15G24    29.89F                  
MANITOWOC      LGT RAIN  68  66  93 S8        29.93F                  
APPLETON       CLOUDY    73  70  88 S15       29.90S                  
CLINTONVILLE   CLOUDY    74  68  81 SW9       29.89R                  
OSHKOSH        CLOUDY    73  68  84 S12G23    29.91S                  
$$
 
WIZ032>034-041-042-053>061-220000-
SOUTHWEST WISCONSIN
  
CITY           SKY/WX    TMP DP  RH WIND       PRES   REMARKS
LA CROSSE      CLOUDY    75  70  83 S10       29.83F                  
SPARTA         CLOUDY    72  67  85 S9G18     29.87S                  
VIROQUA        CLOUDY    72  72 100 S13       29.90S                  
BOSCOBEL       CLOUDY    77  70  79 S9G20     29.90S                  
PRAIRIE DU CHI CLOUDY    75  69  80 S9        29.89S                  
PLATTEVILLE    CLOUDY    73  73 100 S9        29.95S                  
$$

WIZ056-057-062-063-064-067-068-220000-
SOUTH CENTRAL WISCONSIN
  
CITY           SKY/WX    TMP DP  RH WIND       PRES   REMARKS
REEDSBURG      CLOUDY    73  72  98 S14G20    29.91S                  
BARABOO/DELLS  CLOUDY    71  68  89 SW9       29.92S                  
LONE ROCK      CLOUDY    75  70  84 S10       29.91F                  
MINERAL POINT  CLOUDY    73  73 100 S9        29.94F                  
MADISON        LGT RAIN  73  70  90 S9        29.94S                  
MIDDLETON      CLOUDY    74  69  83 SW8       29.95S                  
WATERTOWN      CLOUDY    71  71 100 S9        29.96S                  
MONROE         MOCLDY    73  72  96 S14       29.96F                  
JANESVILLE     LGT RAIN  73  73 100 S8        29.97S                  
$$
 
WIZ051-052-058>065-066-070>072-220000-
SOUTHEAST WISCONSIN
  
CITY           SKY/WX    TMP DP  RH WIND       PRES   REMARKS
MILWAUKEE      LGT RAIN  73  70  90 SW13      29.96F FOG              
WAUKESHA       LGT RAIN  70  68  94 S7G17     29.98F                  
MILWAUKEE/TIMM DRIZZLE   72  66  83 SW13      29.97F                  
RACINE         CLOUDY    73  69  87 S12       29.99F                  
KENOSHA        MOCLDY    74  72  93 S12       29.99F                  
FOND DU LAC    MOCLDY    74  69  85 S15G25    29.92F                  
SHEBOYGAN      CLOUDY    73  69  87 S13       29.93F                  
WEST BEND      LGT RAIN  72  70  94 SW10G16   29.94F                  
JUNEAU         CLOUDY    71  70  97 S10       29.95F                  
$$

LSZ147-162-220000-
LAKE SUPERIOR
  
STATION/POSITION TIME  TEMP    WIND        PRES    WAVE
                       AIR SEA DIR/SP/G            HT/PER
                 (UTC) (F)     (DEG/KT/KT) (MB)    (FT/S)
W MID LAKE BUOY  2250   61 56  230/  6/  8 1005.4F   1/ 4
DEVILS ISLAND    2200   72     170/  2/  4 1005.2F
SAXON HARBOR     2230   77     160/  6/ 11 1006.1S
$$
 
LMZ867-665-643>646-220000-
LAKE MICHIGAN
  
STATION/POSITION TIME  TEMP    WIND        PRES    WAVE
                       AIR SEA DIR/SP/G            HT/PER
                 (UTC) (F)     (DEG/KT/KT) (MB)    (FT/S)
CHAMBERS ISLAND  2240   70     130/  7/ 13   N/A
N MID LAKE BUOY  2250   66 63  190/ 21/ 25 1012.8F   5/ 6
NORTHPORT PIER   2240   67     150/  6/ 15 1012.2S
KEWAUNEE LAKESHO 2230   63     180/ 12/ 15 1012.9R
SHEBOYGAN LAKESH 2300   66     170/ 16/ 17 1013.6F
PORT WASHINGTON  2240   69     200/  7/ 10 1014.9F
S MID LAKE BUOY  2250   71 69  190/ 23/ 27 1015.4F   4/ 5
KENOSHA   LAKESH 2300   73     190/ 12/ 17 1015.2
$$

TC  - TEMPERATURE IN CELSIUS
VSB - VISIBILITY IN STATUTE MILES
WCI - WIND CHILL INDEX
HX  - HEAT INDEX